Location: Dal�� Lhota
(48.7500°N, 14.0167°E)
Time: 08:07:52
(UTC+00:00)

Explorer 7 - Pass Details

Date: 04 August 2021
Orbit: 484 x 676 km, 50.3° (Epoch: 21 September)

Event Time Altitude Azimuth Distance (km) Brightness Sun altitude
Rises 05:28:40 0° 270° (W) 2,575 9.6 15.8°
Reaches altitude 10° 05:30:49 10° 272° (W) 1,710 8.8 16.2°
Maximum altitude 05:34:40 70° 357° (N) 557 7.2 16.8°
Drops below altitude 10° 05:38:45 10° 81° (E) 1,803 12.1 17.5°
Sets 05:41:03 0° 84° (E) 2,730 12.1 17.9°
